Back to catalog

BREEZE-M R/B

AliveHEO
NORAD 45987·ROCKET BODY·🇷🇺 Russia

Launched Jul 30, 2020 from Baikonur Cosmodrome

Loading…

Next Passes (next 24 hours)

TLE

FreshSource: Space-Track

Epoch: Sep 14, 2026, 01:21 UTC

1 45987U 20053C   26257.05665357 -.00000284  00000-0  00000-0 0  9997
2 45987   7.6877  75.7891 4343740  83.8723 322.9004  1.03581258 23168

Track BREEZE-M R/B in real time with AllMySat

Download on the App Store